QPF
0.00 0.01 0.00 0.00 0.01 0.01 0.00 0.00 0.01 0.01 0.01 0.01 0.01 0.02 0.02 0.03 0.03 0.04 0.03 0.02 0.02 0.04 0.06 0.05 0.09 0.08 0.10 0.09 0.08 0.09 0.10 0.09 0.09 0.12 0.15 0.11 0.08 0.10 0.12 0.12 0.10 0.10 0.09
0.00 0.00 0.00 0.00 0.00 0.00 0.00 0.00 0.01 0.01 0.02 0.02 0.03 0.03 0.04 0.03 0.03 0.03 0.03 0.02 0.03 0.03 0.03 0.06 0.07 0.08 0.11 0.10 0.08 0.08 0.07 0.08 0.10 0.11 0.10 0.09 0.08 0.07 0.05 0.07 0.08 0.09 0.07
0.00 0.00 0.00 0.00 0.00 0.00 0.00 0.01 0.01 0.01 0.01 0.02 0.02 0.02 0.04 0.03 0.03 0.04 0.04 0.03 0.02 0.02 0.03 0.05 0.09 0.10 0.09 0.11 0.10 0.08 0.08 0.09 0.08 0.07 0.07 0.07 0.08 0.06 0.06 0.06 0.08 0.08 0.06
0.00 0.00 0.00 0.01 0.00 0.00 0.00 0.00 0.01 0.01 0.02 0.02 0.02 0.02 0.03 0.03 0.03 0.03 0.04 0.03 0.02 0.02 0.02 0.04 0.07 0.09 0.09 0.11 0.08 0.05 0.07 0.09 0.08 0.08 0.08 0.08 0.07 0.06 0.07 0.07 0.07 0.06 0.06
0.00 0.00 0.00 0.01 0.00 0.00 0.00 0.00 0.00 0.01 0.01 0.02 0.03 0.04 0.03 0.03 0.04 0.03 0.03 0.03 0.03 0.03 0.02 0.03 0.07 0.09 0.10 0.10 0.08 0.08 0.09 0.08 0.09 0.09 0.08 0.09 0.09 0.07 0.05 0.06 0.06 0.05 0.03
0.00 0.00 0.01 0.01 0.00 0.00 0.00 0.00 0.00 0.00 0.01 0.01 0.02 0.04 0.06 0.06 0.05 0.06 0.05 0.04 0.03 0.03 0.02 0.03 0.07 0.08 0.08 0.08 0.07 0.08 0.08 0.08 0.09 0.08 0.07 0.08 0.09 0.09 0.07 0.06 0.06 0.06 0.03
0.00 0.00 0.00 0.00 0.00 0.00 0.00 0.01 0.01 0.00 0.00 0.01 0.01 0.01 0.04 0.05 0.05 0.05 0.05 0.04 0.03 0.03 0.03 0.03 0.06 0.09 0.09 0.08 0.06 0.07 0.08 0.09 0.10 0.10 0.10 0.08 0.08 0.08 0.07 0.06 0.05 0.06 0.03
0.00 0.00 0.00 0.00 0.01 0.00 0.00 0.01 0.01 0.01 0.00 0.00 0.01 0.01 0.01 0.01 0.03 0.05 0.05 0.05 0.04 0.03 0.03 0.04 0.05 0.07 0.07 0.07 0.08 0.09 0.10 0.10 0.10 0.08 0.10 0.09 0.07 0.06 0.06 0.07 0.07 0.05 0.04
0.00 0.00 0.00 0.01 0.01 0.01 0.01 0.01 0.01 0.01 0.00 0.00 0.01 0.01 0.00 0.01 0.02 0.03 0.04 0.04 0.04 0.04 0.04 0.04 0.04 0.05 0.06 0.08 0.07 0.08 0.08 0.09 0.08 0.09 0.10 0.08 0.05 0.05 0.06 0.06 0.07 0.07 0.05
0.00 0.00 0.01 0.02 0.01 0.01 0.01 0.01 0.01 0.01 0.01 0.01 0.01 0.01 0.01 0.01 0.02 0.03 0.03 0.04 0.04 0.04 0.05 0.04 0.03 0.03 0.04 0.06 0.06 0.07 0.07 0.08 0.08 0.07 0.08 0.08 0.07 0.06 0.06 0.05 0.05 0.05 0.06
0.00 0.00 0.02 0.02 0.02 0.02 0.01 0.01 0.01 0.00 0.00 0.01 0.01 0.02 0.02 0.02 0.03 0.03 0.04 0.04 0.04 0.04 0.03 0.03 0.03 0.03 0.03 0.05 0.08 0.07 0.08 0.09 0.08 0.07 0.07 0.06 0.07 0.07 0.07 0.06 0.05 0.06 0.06
0.00 0.01 0.02 0.02 0.03 0.02 0.01 0.01 0.00 0.00 0.00 0.01 0.01 0.02 0.03 0.03 0.04 0.04 0.04 0.05 0.03 0.02 0.02 0.03 0.03 0.02 0.03 0.05 0.05 0.05 0.06 0.08 0.07 0.06 0.07 0.06 0.06 0.06 0.07 0.06 0.05 0.06 0.06
0.00 0.01 0.01 0.01 0.02 0.02 0.01 0.01 0.00 0.01 0.01 0.01 0.01 0.01 0.02 0.03 0.05 0.04 0.03 0.03 0.03 0.03 0.03 0.02 0.02 0.03 0.03 0.03 0.04 0.04 0.05 0.05 0.06 0.06 0.06 0.07 0.07 0.06 0.07 0.07 0.07 0.07 0.07
0.01 0.01 0.01 0.01 0.01 0.01 0.01 0.01 0.01 0.00 0.01 0.01 0.01 0.02 0.03 0.06 0.06 0.04 0.03 0.04 0.04 0.04 0.03 0.03 0.03 0.02 0.02 0.03 0.04 0.04 0.04 0.05 0.06 0.05 0.05 0.05 0.05 0.06 0.07 0.07 0.07 0.08 0.07
0.01 0.01 0.01 0.01 0.02 0.01 0.01 0.01 0.01 0.01 0.01 0.02 0.03 0.03 0.04 0.05 0.05 0.05 0.05 0.05 0.06 0.06 0.03 0.03 0.02 0.02 0.02 0.03 0.04 0.05 0.05 0.05 0.04 0.03 0.03 0.02 0.02 0.03 0.03 0.02 0.04 0.05 0.05
0.00 0.01 0.01 0.01 0.02 0.02 0.02 0.01 0.01 0.02 0.02 0.04 0.05 0.05 0.05 0.05 0.05 0.06 0.06 0.06 0.05 0.04 0.03 0.03 0.03 0.03 0.03 0.05 0.06 0.05 0.06 0.05 0.05 0.03 0.02 0.02 0.01 0.02 0.02 0.01 0.02 0.02 0.03
0.00 0.00 0.00 0.01 0.02 0.02 0.02 0.02 0.03 0.03 0.03 0.04 0.04 0.05 0.05 0.06 0.07 0.08 0.08 0.06 0.04 0.04 0.04 0.04 0.04 0.03 0.04 0.06 0.06 0.06 0.04 0.04 0.03 0.02 0.02 0.01 0.01 0.01 0.01 0.02 0.02 0.02 0.01
0.01 0.00 0.00 0.01 0.02 0.02 0.02 0.02 0.03 0.03 0.03 0.03 0.03 0.04 0.04 0.04 0.05 0.08 0.07 0.07 0.05 0.05 0.04 0.04 0.04 0.04 0.05 0.05 0.05 0.05 0.03 0.02 0.02 0.01 0.01 0.01 0.02 0.02 0.03 0.03 0.03 0.04 0.03
0.00 0.00 0.00 0.01 0.01 0.01 0.02 0.02 0.04 0.03 0.03 0.02 0.02 0.02 0.02 0.02 0.03 0.06 0.09 0.09 0.08 0.07 0.05 0.05 0.05 0.05 0.06 0.06 0.04 0.03 0.02 0.01 0.01 0.02 0.02 0.03 0.03 0.05 0.06 0.05 0.05 0.05 0.04
0.01 0.00 0.00 0.01 0.01 0.01 0.01 0.02 0.04 0.06 0.06 0.04 0.02 0.02 0.02 0.02 0.03 0.04 0.06 0.08 0.10 0.09 0.07 0.06 0.06 0.06 0.05 0.04 0.04 0.03 0.02 0.02 0.02 0.03 0.03 0.05 0.06 0.08 0.08 0.05 0.04 0.04 0.04
0.01 0.00 0.00 0.01 0.01 0.01 0.01 0.01 0.02 0.02 0.03 0.05 0.04 0.03 0.02 0.02 0.03 0.04 0.04 0.05 0.06 0.07 0.08 0.07 0.07 0.06 0.05 0.04 0.03 0.03 0.03 0.03 0.03 0.02 0.03 0.04 0.05 0.05 0.05 0.05 0.05 0.04 0.03
0.01 0.01 0.01 0.00 0.00 0.00 0.00 0.01 0.01 0.02 0.03 0.04 0.04 0.04 0.03 0.03 0.04 0.04 0.05 0.06 0.06 0.05 0.06 0.06 0.06 0.05 0.04 0.03 0.02 0.02 0.02 0.02 0.03 0.03 0.02 0.03 0.03 0.03 0.04 0.05 0.05 0.05 0.04
0.01 0.01 0.01 0.00 0.00 0.00 0.01 0.01 0.01 0.02 0.03 0.03 0.03 0.03 0.03 0.03 0.04 0.05 0.06 0.06 0.06 0.06 0.06 0.05 0.04 0.03 0.02 0.02 0.02 0.02 0.02 0.02 0.01 0.02 0.03 0.03 0.03 0.03 0.04 0.04 0.03 0.03 0.03
0.01 0.01 0.01 0.01 0.01 0.01 0.02 0.02 0.03 0.03 0.03 0.03 0.03 0.04 0.04 0.05 0.07 0.08 0.08 0.06 0.05 0.04 0.04 0.03 0.02 0.02 0.02 0.02 0.02 0.02 0.02 0.02 0.02 0.02 0.03 0.03 0.03 0.02 0.03 0.03 0.03 0.03 0.04
0.01 0.02 0.02 0.03 0.05 0.03 0.04 0.04 0.04 0.04 0.03 0.02 0.02 0.03 0.05 0.05 0.05 0.07 0.07 0.06 0.04 0.04 0.03 0.02 0.02 0.01 0.01 0.02 0.03 0.02 0.02 0.02 0.03 0.04 0.04 0.05 0.03 0.03 0.02 0.02 0.02 0.02 0.02
0.03 0.03 0.02 0.04 0.07 0.05 0.05 0.05 0.04 0.03 0.02 0.01 0.02 0.04 0.05 0.05 0.06 0.05 0.05 0.06 0.05 0.04 0.04 0.03 0.01 0.01 0.01 0.02 0.02 0.02 0.02 0.03 0.04 0.04 0.03 0.04 0.02 0.02 0.02 0.02 0.03 0.03 0.03
MSLP
1012.99 1013.00 1013.03 1013.10 1013.21 1013.37 1013.59 1013.85 1014.15 1014.46 1014.75 1015.00 1015.21 1015.34 1015.42 1015.43 1015.40 1015.34 1015.26 1015.17 1015.09 1015.02 1014.95 1014.91 1014.90 1014.91 1014.96 1015.03 1015.12 1015.21 1015.30 1015.37 1015.39 1015.38 1015.32 1015.23 1015.12 1015.00 1014.91 1014.86 1014.85 1014.92 1015.05
1012.47 1012.53 1012.62 1012.73 1012.87 1013.05 1013.26 1013.53 1013.83 1014.16 1014.49 1014.79 1015.05 1015.23 1015.34 1015.37 1015.33 1015.24 1015.12 1014.99 1014.87 1014.77 1014.70 1014.67 1014.66 1014.67 1014.71 1014.76 1014.81 1014.87 1014.91 1014.94 1014.96 1014.95 1014.91 1014.85 1014.78 1014.69 1014.60 1014.53 1014.48 1014.47 1014.52
1011.85 1011.98 1012.13 1012.30 1012.47 1012.67 1012.91 1013.18 1013.50 1013.85 1014.21 1014.56 1014.87 1015.10 1015.24 1015.29 1015.25 1015.15 1015.01 1014.85 1014.71 1014.60 1014.53 1014.50 1014.49 1014.50 1014.52 1014.54 1014.55 1014.55 1014.56 1014.55 1014.56 1014.56 1014.56 1014.55 1014.52 1014.47 1014.40 1014.31 1014.21 1014.12 1014.06
1011.13 1011.32 1011.54 1011.78 1012.01 1012.26 1012.52 1012.81 1013.16 1013.54 1013.95 1014.35 1014.70 1014.99 1015.17 1015.25 1015.23 1015.13 1014.98 1014.82 1014.67 1014.57 1014.50 1014.47 1014.47 1014.47 1014.47 1014.46 1014.43 1014.38 1014.34 1014.32 1014.31 1014.33 1014.36 1014.40 1014.42 1014.41 1014.34 1014.23 1014.06 1013.88 1013.69
1010.34 1010.60 1010.90 1011.21 1011.51 1011.81 1012.12 1012.46 1012.84 1013.27 1013.72 1014.17 1014.59 1014.93 1015.16 1015.28 1015.29 1015.20 1015.07 1014.92 1014.78 1014.69 1014.63 1014.61 1014.62 1014.62 1014.60 1014.56 1014.49 1014.41 1014.33 1014.28 1014.26 1014.29 1014.35 1014.42 1014.47 1014.48 1014.41 1014.26 1014.02 1013.72 1013.41
1009.56 1009.88 1010.25 1010.64 1011.03 1011.40 1011.77 1012.16 1012.59 1013.07 1013.57 1014.07 1014.54 1014.94 1015.22 1015.39 1015.43 1015.38 1015.28 1015.15 1015.03 1014.95 1014.91 1014.91 1014.92 1014.92 1014.89 1014.83 1014.73 1014.62 1014.51 1014.43 1014.40 1014.43 1014.49 1014.57 1014.64 1014.64 1014.55 1014.34 1014.02 1013.62 1013.17
1008.90 1009.26 1009.71 1010.18 1010.63 1011.08 1011.52 1011.97 1012.45 1012.97 1013.52 1014.07 1014.58 1015.02 1015.36 1015.57 1015.66 1015.65 1015.57 1015.47 1015.38 1015.32 1015.30 1015.31 1015.32 1015.32 1015.28 1015.20 1015.08 1014.94 1014.81 1014.70 1014.65 1014.66 1014.71 1014.78 1014.83 1014.81 1014.68 1014.42 1014.02 1013.52 1012.95
1008.45 1008.86 1009.36 1009.89 1010.42 1010.93 1011.42 1011.92 1012.44 1013.00 1013.58 1014.16 1014.70 1015.18 1015.55 1015.80 1015.93 1015.96 1015.92 1015.86 1015.79 1015.75 1015.74 1015.75 1015.77 1015.76 1015.71 1015.62 1015.48 1015.31 1015.15 1015.01 1014.93 1014.91 1014.93 1014.96 1014.98 1014.92 1014.74 1014.43 1013.98 1013.41 1012.77
1008.29 1008.74 1009.28 1009.86 1010.44 1010.99 1011.53 1012.05 1012.60 1013.17 1013.75 1014.34 1014.90 1015.38 1015.78 1016.06 1016.22 1016.29 1016.28 1016.25 1016.21 1016.18 1016.18 1016.20 1016.21 1016.19 1016.13 1016.01 1015.85 1015.66 1015.47 1015.31 1015.19 1015.12 1015.09 1015.08 1015.05 1014.94 1014.73 1014.39 1013.91 1013.31 1012.62
1008.44 1008.92 1009.49 1010.10 1010.70 1011.27 1011.82 1012.36 1012.90 1013.46 1014.03 1014.60 1015.14 1015.62 1016.02 1016.31 1016.50 1016.60 1016.63 1016.62 1016.61 1016.60 1016.61 1016.62 1016.62 1016.58 1016.51 1016.38 1016.20 1015.99 1015.77 1015.58 1015.41 1015.30 1015.22 1015.15 1015.06 1014.92 1014.68 1014.32 1013.84 1013.24 1012.56
1008.86 1009.35 1009.94 1010.55 1011.15 1011.73 1012.27 1012.79 1013.30 1013.83 1014.36 1014.89 1015.40 1015.86 1016.25 1016.55 1016.76 1016.88 1016.95 1016.98 1016.99 1017.00 1017.01 1017.02 1017.02 1016.97 1016.88 1016.74 1016.55 1016.32 1016.09 1015.86 1015.66 1015.49 1015.36 1015.24 1015.10 1014.92 1014.66 1014.30 1013.84 1013.28 1012.64
1009.42 1009.92 1010.50 1011.10 1011.69 1012.25 1012.77 1013.27 1013.75 1014.23 1014.72 1015.20 1015.67 1016.09 1016.46 1016.76 1016.99 1017.14 1017.25 1017.32 1017.36 1017.40 1017.43 1017.44 1017.43 1017.39 1017.29 1017.14 1016.95 1016.71 1016.46 1016.22 1015.98 1015.78 1015.60 1015.43 1015.25 1015.03 1014.76 1014.41 1013.98 1013.47 1012.90
1009.96 1010.46 1011.02 1011.62 1012.19 1012.74 1013.24 1013.72 1014.17 1014.62 1015.06 1015.50 1015.92 1016.31 1016.67 1016.97 1017.21 1017.40 1017.55 1017.66 1017.75 1017.82 1017.87 1017.90 1017.90 1017.86 1017.77 1017.62 1017.43 1017.21 1016.96 1016.70 1016.46 1016.22 1016.00 1015.79 1015.57 1015.32 1015.04 1014.70 1014.30 1013.84 1013.32
1010.32 1010.82 1011.38 1011.96 1012.53 1013.08 1013.58 1014.06 1014.51 1014.94 1015.36 1015.77 1016.16 1016.53 1016.88 1017.18 1017.45 1017.68 1017.87 1018.03 1018.16 1018.27 1018.35 1018.40 1018.42 1018.39 1018.31 1018.18 1018.01 1017.80 1017.57 1017.33 1017.08 1016.83 1016.59 1016.34 1016.08 1015.81 1015.50 1015.16 1014.77 1014.35 1013.89
1010.40 1010.90 1011.46 1012.04 1012.63 1013.21 1013.75 1014.26 1014.74 1015.19 1015.62 1016.02 1016.41 1016.78 1017.12 1017.44 1017.72 1017.98 1018.22 1018.42 1018.60 1018.74 1018.86 1018.93 1018.96 1018.95 1018.89 1018.79 1018.64 1018.47 1018.26 1018.04 1017.81 1017.56 1017.31 1017.04 1016.75 1016.44 1016.11 1015.75 1015.37 1014.97 1014.54
1010.15 1010.64 1011.21 1011.83 1012.47 1013.11 1013.73 1014.32 1014.87 1015.38 1015.85 1016.28 1016.69 1017.06 1017.41 1017.74 1018.05 1018.34 1018.60 1018.84 1019.05 1019.22 1019.35 1019.44 1019.49 1019.49 1019.45 1019.37 1019.26 1019.12 1018.96 1018.77 1018.57 1018.34 1018.09 1017.80 1017.50 1017.16 1016.80 1016.42 1016.02 1015.62 1015.21
1009.57 1010.08 1010.68 1011.35 1012.07 1012.81 1013.55 1014.25 1014.91 1015.52 1016.06 1016.56 1017.00 1017.40 1017.77 1018.11 1018.43 1018.73 1019.01 1019.27 1019.49 1019.67 1019.81 1019.90 1019.95 1019.96 1019.93 1019.87 1019.79 1019.69 1019.57 1019.43 1019.26 1019.06 1018.82 1018.55 1018.23 1017.87 1017.49 1017.08 1016.66 1016.25 1015.85
1008.77 1009.29 1009.94 1010.69 1011.52 1012.39 1013.27 1014.12 1014.91 1015.64 1016.29 1016.85 1017.34 1017.78 1018.17 1018.52 1018.84 1019.15 1019.43 1019.68 1019.90 1020.07 1020.20 1020.28 1020.32 1020.32 1020.30 1020.25 1020.19 1020.13 1020.04 1019.94 1019.82 1019.66 1019.45 1019.19 1018.87 1018.51 1018.12 1017.70 1017.27 1016.85 1016.45
1007.86 1008.42 1009.13 1009.97 1010.92 1011.93 1012.96 1013.97 1014.91 1015.76 1016.51 1017.15 1017.70 1018.17 1018.58 1018.94 1019.26 1019.55 1019.82 1020.05 1020.25 1020.41 1020.51 1020.57 1020.59 1020.58 1020.55 1020.51 1020.47 1020.42 1020.38 1020.31 1020.23 1020.11 1019.93 1019.70 1019.41 1019.07 1018.68 1018.26 1017.83 1017.41 1017.01
1007.00 1007.59 1008.37 1009.31 1010.37 1011.52 1012.69 1013.83 1014.91 1015.87 1016.72 1017.43 1018.03 1018.53 1018.95 1019.30 1019.62 1019.90 1020.15 1020.37 1020.55 1020.68 1020.77 1020.81 1020.81 1020.79 1020.75 1020.70 1020.67 1020.64 1020.62 1020.58 1020.54 1020.45 1020.32 1020.12 1019.86 1019.55 1019.18 1018.79 1018.38 1017.97 1017.58
1006.30 1006.94 1007.78 1008.80 1009.96 1011.21 1012.49 1013.75 1014.92 1015.97 1016.88 1017.64 1018.28 1018.79 1019.22 1019.58 1019.89 1020.16 1020.41 1020.62 1020.78 1020.91 1020.99 1021.02 1021.02 1020.99 1020.94 1020.90 1020.87 1020.85 1020.84 1020.83 1020.80 1020.74 1020.64 1020.49 1020.27 1019.99 1019.67 1019.31 1018.93 1018.55 1018.19
1005.87 1006.54 1007.43 1008.51 1009.74 1011.05 1012.40 1013.71 1014.93 1016.02 1016.97 1017.75 1018.40 1018.92 1019.35 1019.72 1020.03 1020.31 1020.56 1020.78 1020.96 1021.10 1021.19 1021.24 1021.25 1021.23 1021.20 1021.16 1021.13 1021.11 1021.11 1021.10 1021.09 1021.05 1020.97 1020.84 1020.66 1020.42 1020.14 1019.82 1019.49 1019.15 1018.82
1005.75 1006.46 1007.37 1008.48 1009.72 1011.06 1012.41 1013.73 1014.94 1016.03 1016.96 1017.74 1018.38 1018.90 1019.33 1019.70 1020.02 1020.32 1020.60 1020.85 1021.07 1021.25 1021.39 1021.47 1021.52 1021.53 1021.52 1021.50 1021.48 1021.47 1021.46 1021.45 1021.43 1021.38 1021.31 1021.19 1021.03 1020.83 1020.58 1020.31 1020.02 1019.73 1019.44
1005.96 1006.67 1007.60 1008.69 1009.92 1011.22 1012.53 1013.79 1014.95 1015.98 1016.87 1017.61 1018.22 1018.73 1019.15 1019.53 1019.88 1020.21 1020.53 1020.83 1021.11 1021.36 1021.55 1021.70 1021.81 1021.86 1021.89 1021.90 1021.89 1021.87 1021.85 1021.82 1021.78 1021.73 1021.64 1021.52 1021.37 1021.18 1020.96 1020.73 1020.48 1020.23 1019.98
1006.45 1007.17 1008.07 1009.13 1010.29 1011.51 1012.74 1013.90 1014.97 1015.91 1016.72 1017.40 1017.97 1018.44 1018.86 1019.25 1019.62 1019.99 1020.36 1020.73 1021.08 1021.39 1021.66 1021.89 1022.05 1022.17 1022.24 1022.27 1022.27 1022.26 1022.22 1022.17 1022.10 1022.01 1021.90 1021.76 1021.60 1021.42 1021.23 1021.02 1020.81 1020.60 1020.38
1007.17 1007.88 1008.74 1009.74 1010.81 1011.92 1013.02 1014.06 1015.01 1015.85 1016.56 1017.16 1017.67 1018.11 1018.52 1018.91 1019.30 1019.71 1020.12 1020.54 1020.95 1021.33 1021.67 1021.96 1022.19 1022.35 1022.46 1022.52 1022.54 1022.52 1022.46 1022.39 1022.29 1022.17 1022.03 1021.87 1021.70 1021.51 1021.33 1021.14 1020.96 1020.78 1020.61
Thickness
5811 5809 5805 5802 5798 5794 5790 5786 5783 5780 5777 5775 5772 5769 5767 5766 5764 5762 5759 5757 5756 5755 5753 5753 5750 5750 5750 5749 5750 5748 5747 5747 5748 5747 5746 5749 5750 5748 5747 5746 5746 5745 5742
5809 5807 5805 5802 5799 5795 5791 5787 5784 5782 5779 5777 5774 5772 5770 5768 5767 5764 5760 5758 5757 5755 5755 5752 5752 5751 5750 5749 5749 5747 5748 5748 5748 5745 5742 5741 5744 5745 5749 5747 5746 5746 5744
5811 5808 5806 5804 5802 5799 5795 5792 5788 5785 5781 5779 5776 5773 5769 5767 5766 5764 5762 5760 5758 5756 5755 5754 5753 5752 5752 5751 5749 5748 5746 5745 5747 5747 5742 5738 5735 5741 5747 5747 5747 5745 5743
5818 5814 5810 5807 5805 5804 5801 5796 5791 5787 5783 5780 5777 5773 5768 5766 5767 5765 5765 5762 5759 5757 5756 5754 5753 5752 5752 5750 5751 5752 5749 5745 5745 5746 5745 5743 5742 5736 5738 5744 5747 5745 5744
5823 5819 5816 5813 5811 5809 5805 5800 5794 5789 5785 5781 5778 5773 5771 5770 5770 5767 5765 5762 5761 5758 5757 5755 5753 5752 5751 5751 5750 5749 5748 5748 5746 5745 5746 5744 5742 5741 5736 5735 5740 5744 5747
5828 5824 5821 5817 5813 5812 5808 5803 5796 5790 5787 5783 5780 5775 5772 5770 5768 5765 5764 5762 5762 5760 5759 5757 5755 5753 5753 5751 5750 5749 5748 5747 5747 5746 5746 5744 5741 5740 5739 5736 5737 5739 5745
5830 5826 5821 5817 5813 5811 5808 5804 5798 5792 5789 5785 5781 5778 5775 5771 5767 5766 5765 5763 5764 5762 5760 5759 5756 5755 5753 5752 5751 5749 5749 5748 5746 5744 5745 5745 5744 5743 5742 5738 5738 5739 5743
5833 5829 5826 5821 5816 5813 5810 5805 5800 5794 5791 5787 5783 5781 5777 5775 5773 5769 5768 5766 5765 5764 5762 5759 5757 5755 5754 5753 5751 5751 5749 5748 5746 5746 5745 5744 5745 5746 5744 5741 5738 5736 5739
5833 5831 5828 5825 5820 5815 5812 5808 5802 5797 5793 5789 5785 5781 5778 5776 5774 5771 5767 5767 5765 5765 5762 5759 5757 5756 5754 5753 5751 5750 5748 5747 5746 5746 5746 5744 5746 5746 5745 5744 5740 5735 5732
5831 5830 5829 5826 5823 5819 5815 5810 5805 5799 5795 5791 5787 5783 5780 5777 5773 5771 5768 5766 5765 5763 5761 5758 5757 5755 5753 5752 5750 5749 5748 5746 5745 5744 5744 5743 5745 5745 5744 5743 5742 5739 5735
5826 5827 5827 5827 5824 5821 5816 5810 5805 5800 5795 5791 5788 5784 5781 5778 5774 5771 5768 5765 5763 5761 5759 5757 5755 5754 5752 5751 5749 5748 5747 5745 5744 5743 5742 5741 5741 5741 5741 5741 5739 5737 5735
5823 5824 5825 5824 5822 5819 5815 5810 5805 5799 5795 5792 5787 5783 5780 5778 5774 5771 5767 5764 5762 5760 5758 5756 5754 5753 5752 5750 5748 5746 5746 5744 5742 5741 5740 5739 5739 5737 5737 5736 5735 5734 5732
5817 5818 5818 5818 5817 5815 5813 5809 5804 5799 5796 5792 5787 5782 5779 5776 5772 5769 5767 5763 5761 5759 5757 5755 5753 5752 5750 5749 5747 5745 5744 5742 5741 5739 5738 5736 5735 5733 5733 5732 5731 5730 5729
5808 5810 5809 5809 5810 5810 5808 5805 5802 5799 5795 5790 5785 5781 5778 5774 5771 5769 5766 5763 5760 5757 5755 5753 5752 5751 5750 5748 5745 5742 5740 5739 5738 5737 5735 5734 5732 5730 5729 5728 5726 5725 5723
5800 5801 5801 5802 5803 5803 5801 5800 5798 5795 5791 5786 5782 5778 5776 5773 5770 5767 5763 5761 5758 5756 5754 5751 5749 5748 5746 5745 5741 5739 5737 5736 5734 5733 5732 5730 5727 5724 5723 5723 5721 5720 5718
5793 5795 5796 5796 5796 5796 5795 5794 5792 5790 5787 5782 5778 5775 5772 5769 5766 5763 5760 5757 5755 5753 5751 5748 5745 5743 5742 5738 5735 5734 5734 5732 5730 5728 5727 5725 5722 5719 5716 5713 5711 5710 5709
5788 5789 5791 5791 5791 5791 5790 5788 5786 5784 5781 5778 5775 5771 5769 5765 5762 5761 5756 5753 5750 5748 5745 5742 5740 5738 5735 5731 5729 5728 5728 5727 5725 5723 5721 5721 5720 5716 5714 5710 5706 5703 5700
5783 5785 5786 5786 5787 5787 5786 5784 5782 5779 5776 5772 5770 5767 5764 5761 5758 5755 5751 5748 5746 5743 5739 5736 5734 5732 5729 5726 5724 5723 5722 5722 5720 5718 5716 5714 5711 5709 5707 5706 5703 5699 5696
5779 5780 5783 5783 5782 5781 5779 5777 5775 5772 5769 5766 5763 5761 5759 5756 5753 5749 5745 5743 5740 5737 5733 5731 5728 5725 5722 5719 5718 5718 5719 5716 5714 5712 5709 5707 5704 5699 5697 5697 5694 5692 5688
5774 5775 5777 5777 5774 5773 5773 5770 5768 5764 5760 5759 5757 5755 5753 5750 5747 5742 5739 5737 5734 5730 5727 5724 5722 5719 5716 5712 5711 5711 5715 5711 5708 5704 5701 5696 5693 5689 5687 5688 5686 5682 5679
5767 5768 5769 5768 5766 5766 5766 5762 5759 5755 5754 5753 5750 5748 5745 5742 5740 5736 5733 5730 5727 5724 5720 5717 5714 5711 5708 5705 5704 5704 5708 5706 5703 5699 5695 5689 5684 5681 5678 5677 5676 5672 5670
5757 5759 5759 5758 5758 5759 5757 5753 5749 5747 5746 5744 5741 5739 5737 5736 5733 5729 5725 5723 5720 5716 5712 5709 5707 5704 5701 5698 5696 5695 5695 5695 5693 5690 5686 5680 5675 5672 5668 5667 5663 5662 5661
5749 5751 5751 5749 5749 5749 5748 5744 5740 5739 5738 5735 5732 5730 5728 5726 5724 5720 5717 5715 5712 5710 5707 5704 5700 5697 5695 5692 5689 5687 5685 5683 5682 5678 5672 5669 5666 5663 5660 5656 5655 5655 5654
5741 5742 5742 5740 5739 5739 5738 5735 5732 5731 5729 5726 5723 5721 5718 5716 5713 5711 5709 5706 5704 5702 5700 5697 5694 5691 5688 5686 5684 5683 5679 5674 5672 5669 5664 5660 5657 5655 5651 5649 5648 5646 5642
5733 5734 5733 5731 5730 5730 5728 5726 5724 5723 5720 5717 5714 5712 5709 5706 5701 5697 5693 5692 5687 5686 5687 5687 5685 5682 5678 5670 5667 5670 5670 5668 5664 5661 5659 5656 5652 5648 5644 5641 5638 5636 5633
5723 5724 5724 5723 5722 5720 5718 5718 5717 5715 5712 5709 5706 5705 5703 5699 5695 5689 5681 5673 5673 5671 5670 5669 5669 5666 5661 5659 5658 5657 5655 5653 5651 5652 5650 5646 5642 5638 5634 5632 5629 5626 5622